User: anonymous   Login
Location: Huesca
(42.1318°N, 0.4078°W)
Time: 05:13:39
(UTC+02:00)
Language:

O/OREOS (USA 219) - Orbit

View from above orbital plane
View from above orbital plane
View from above satellite
View from above satellite

Ground track
Ground track

The orbit data is extracted from the following two-line orbital elements,

1 37224U 10062C   24282.56072887  .00022254  00000-0  23752-2 0  9994
2 37224  71.9747  32.5848 0014547 166.4006 193.7557 14.88699538 24698
Epoch (UTC): 08 October 2024 13:27:26
Eccentricity: 0.0014547
inclination: 71.9747°
perigee height: 592 km
apogee height: 612 km
right ascension of ascending node: 32.5848°
argument of perigee: 166.4006°
revolutions per day: 14.88699538
mean anomaly at epoch: 193.7557°
orbit number at epoch: 2469

The dashed part of the orbit path shows where the satellite is in the earth's shadow,  

DLR